Commit Graph
3216 Commits
Author SHA1 Message Date
mo8it 04520ae7ad Use the website link as header 2025-05-19 18:30:40 +02:00
mo8it edc8528dde Improve CI 2025-05-19 18:20:34 +02:00
mo8it 47e490a997 Run rustywind 2025-05-17 22:33:17 +02:00
mo8it 596e7f36cc Add website CI 2025-05-17 22:33:00 +02:00
mo8it 512ded81c4 Done community exercises page 2025-05-17 22:05:57 +02:00
mo8it 69a9e9cafc Less top margin for blockquotes 2025-05-17 22:05:48 +02:00
mo8it 54a74fd638 Use internal links for validation 2025-05-17 21:28:25 +02:00
mo8it a51d6f1309 third-party/custom -> community 2025-05-17 21:25:19 +02:00
mo8it f6a657a0c3 Finish the usage page 2025-05-17 21:02:45 +02:00
mo8it 8c24763259 Q/A -> Q&A 2025-05-17 21:02:01 +02:00
mo8it dc468882cc Highlight platform 2025-05-17 20:45:28 +02:00
mo8it 5fc787f4e4 Style details body 2025-05-17 20:45:20 +02:00
mo8it 8fa598ae7e Add details shortcode 2025-05-17 20:20:19 +02:00
mo8it 2f700991f3 Remove macros 2025-05-17 19:53:30 +02:00
mo8it b4a6b87e24 Less padding 2025-05-17 19:34:53 +02:00
mo8it 984e9fea7c Merge branch 'main' 2025-05-17 16:17:20 +02:00
mo8it 8339007633 Update setup and usage 2025-05-17 16:06:04 +02:00
mo8it 23b9aa3a15 Move Q/A menu item 2025-05-17 16:05:42 +02:00
mo8it 69fe9626da Update base URL 2025-05-17 16:05:26 +02:00
mo8it f387f4c1d9 Add setup and usage pages 2025-05-17 15:49:26 +02:00
liv 40fe3aa741 remove oranda path_prefix 2025-05-17 15:48:04 +02:00
mo8it b30973afa1 Compress the intro 2025-05-17 14:53:38 +02:00
mo8it 3d8bef4bc3 Remove landscape mode recommendation 2025-05-17 14:53:20 +02:00
mo8it 2673177b17 Update header and footer 2025-05-17 13:02:34 +02:00
mo8it 6d5369d4d0 Add more menu and footer items 2025-05-17 12:25:55 +02:00
mo8it b9d1e636a4 Reduce the README to the website link 2025-05-17 12:25:32 +02:00
mo8it 7e26418952 Remove the third-party exercises file 2025-05-17 12:25:08 +02:00
mo8it 61c17cb349 Change syntax highlighting theme 2025-05-17 12:24:44 +02:00
mo8it fda18e8895 Add Ferris SVGs 2025-05-17 12:24:27 +02:00
mo8it 7ec6986965 Add templates 2025-05-16 23:11:08 +02:00
mo8it 74ab9924b4 Start with Zola 2025-05-16 21:08:29 +02:00
mo8it a28000acc4 Remove markdown lint 2025-05-16 11:35:46 +02:00
mo8it 08548abcc2 Remove .editorconfig 2025-05-16 11:35:24 +02:00
mo8it 5927a781a3 Remove Oranda 2025-05-16 11:29:32 +02:00
mo8it e73fff3bd4 Add dev alias 2025-05-16 11:09:06 +02:00
mo8it 8dff0df266 Use std pipe 2025-05-16 11:09:06 +02:00
liv 5ee7dfb5c2 chore: build site with proper path prefix 2025-05-16 11:05:02 +02:00
mo8it 9a3586878d Sync solution 2025-05-13 16:24:42 +02:00
Mo BitarandGitHub a99433c62d Merge pull request #2215 from Rudxain/strim
test idempotence of `trim_me` in `strings3.rs`
2025-05-13 16:23:35 +02:00
mo8it e76ca5e2b9 Use a separate target dir for rust analyzer 2025-05-12 20:38:04 +02:00
mo8it 48bab77609 Apply Clippy lints 2025-05-12 20:31:13 +02:00
mo8it a063bcfb4c Update deps 2025-05-12 20:30:56 +02:00
mo8it c5f49cfa48 Remove needless_option_as_deref exception 2025-05-12 20:30:51 +02:00
mo8it 9bcd4198c5 Fix formatting 2025-04-29 21:36:56 +02:00
mo8it 29dc8ea9fa Update deps 2025-04-29 21:35:58 +02:00
Mo BitarandGitHub fa91814aa9 Merge pull request #2232 from ethdew19/main
Fix typo in traits hint
2025-04-29 21:34:47 +02:00
Mo BitarandGitHub 0b91db2195 Merge pull request #2236 from rahmatnazali/ice_cream
Fix possible typo of `icecream` to `ice cream` on `options1.rs`
2025-04-29 21:34:21 +02:00
Rahmat Nazali Salimi 7b2d42b0f0 Change icecream to ice cream 2025-04-10 15:38:43 +07:00
Ethan bd3bdd620b Fix typo in traits hint 2025-04-08 20:23:11 -05:00
Mo BitarandGitHub 8b4562e102 Merge pull request #2219 from ubitux/no-todo
Remove TODO from 2 solutions
2025-04-03 19:36:06 +02:00